Location: Newark
(47.5833°N, 8.1500°E)
Time: 15:18:46
(UTC+00:00)

X-37B - Visible Passes

Search period start: 29 September 2020 00:00
Search period end: 09 October 2020 00:00
Orbit: 386 x 387 km, 45.0° (Epoch: 18 September)

Date Brightness Start Highest point End Pass type
(mag) Time Alt. Az. Time Alt. Az. Time Alt. Az.
02 Oct 3.4 19:10:38 10° SW 19:10:54 12° SSW 19:10:54 12° SSW visible
03 Oct 2.4 18:12:46 10° SSW 18:14:55 17° SSE 18:15:15 17° SE visible
04 Oct 2.0 18:49:40 10° SW 18:51:46 28° SSW 18:51:46 28° SSW visible
05 Oct 2.0 17:51:30 10° SW 17:54:10 24° SSE 17:55:54 16° ESE visible
05 Oct 3.3 19:27:21 10° WSW 19:28:11 17° WSW 19:28:11 17° WSW visible
06 Oct 1.0 18:28:54 10° WSW 18:31:57 44° SSE 18:32:15 42° SSE visible
07 Oct 1.6 17:30:33 10° SW 17:33:28 34° SSE 17:36:16 11° E visible
07 Oct 2.3 19:06:43 10° W 19:08:32 29° WSW 19:08:32 29° WSW visible
08 Oct 1.0 18:08:13 10° WSW 18:11:19 51° S 18:12:31 31° ESE visible
08 Oct 4.0 19:44:42 10° W 19:44:47 11° W 19:44:47 11° W visible
